CW3202 Weather Reports


time (UTC)temp
C
wind
direction
speed
KPH
gust
KPH
rain 1hr
cm
rain 24hr
cm
rain mn
cm
humidity
%
barometer
mb
20260503230104 30 224 3.2 16.1 0.00 0.00 0.00 36 1008.0
20260503225604 30 161 8.0 16.1 0.00 0.00 0.00 35 1008.0
20260503224904 31 189 3.2 6.4 0.00 0.00 0.00 35 1008.0
20260503224404 31 64 4.8 8.0 0.00 0.00 0.00 29 1008.1
20260503223704 31 355 8.0 9.7 0.00 0.00 0.00 31 1008.2
20260503223204 31 206 8.0 11.3 0.00 0.00 0.00 35 1008.3
20260503222704 30 251 1.6 11.3 0.00 0.00 0.00 34 1008.5
20260503222204 30 288 11.3 11.3 0.00 0.00 0.00 35 1008.4
20260503221704 30 260 9.7 9.7 0.00 0.00 0.00 36 1008.5
20260503220904 30 325 0.0 4.8 0.00 0.00 0.00 31 1008.6
20260503220404 30 299 1.6 9.7 0.00 0.00 0.00 29 1008.7
20260503215804 30 43 9.7 9.7 0.00 0.00 0.00 33 1008.8
20260503215304 30 24 4.8 14.5 0.00 0.00 0.00 31 1008.8
20260503214804 30 18 8.0 14.5 0.00 0.00 0.00 34 1008.9
20260503214304 30 16 4.8 9.7 0.00 0.00 0.00 31 1008.8
20260503213804 30 319 4.8 17.7 0.00 0.00 0.00 32 1008.9
20260503213304 30 5 6.4 17.7 0.00 0.00 0.00 34 1008.9
20260503212804 30 32 17.7 17.7 0.00 0.00 0.00 36 1008.9
20260503212104 30 355 4.8 9.7 0.00 0.00 0.00 33 1009.1
20260503211604 30 53 9.7 9.7 0.00 0.00 0.00 29 1009.1
20260503211104 30 300 1.6 6.4 0.00 0.00 0.00 27 1009.1
20260503210604 30 300 1.6 14.5 0.00 0.00 0.00 29 1009.3
20260503210105 30 324 6.4 14.5 0.00 0.00 0.00 32 1009.3
20260503205604 30 225 3.2 8.0 0.00 0.00 0.00 34 1009.4
20260503205004 30 310 8.0 8.0 0.00 0.00 0.00 33 1009.5
20260503204504 29 244 4.8 9.7 0.00 0.00 0.00 37 1009.5
20260503204004 30 244 4.8 9.7 0.00 0.00 0.00 37 1009.6
20260503203504 30 355 9.7 9.7 0.00 0.00 0.00 37 1009.7
20260503203004 30 82 0.0 8.0 0.00 0.00 0.00 36 1009.6
20260503202504 29 355 3.2 8.0 0.00 0.00 0.00 35 1009.8
20260503202004 29 338 1.6 8.0 0.00 0.00 0.00 32 1009.9
20260503201404 29 5 6.4 8.0 0.00 0.00 0.00 41 1009.9
20260503200804 29 336 4.8 11.3 0.00 0.00 0.00 40 1010.0
20260503200104 29 300 11.3 12.9 0.00 0.00 0.00 34 1010.2
20260503195404 29 32 4.8 12.9 0.00 0.00 0.00 38 1010.2
20260503194904 29 244 3.2 3.2 0.00 0.00 0.00 40 1010.2
20260503194404 28 32 3.2 8.0 0.00 0.00 0.00 45 1010.3
20260503193904 28 32 3.2 8.0 0.00 0.00 0.00 46 1010.3
20260503193204 28 246 4.8 16.1 0.00 0.00 0.00 45 1010.5
20260503192704 28 272 6.4 16.1 0.00 0.00 0.00 46 1010.5
20260503192204 28 330 3.2 12.9 0.00 0.00 0.00 43 1010.5
20260503191703 28 285 3.2 11.3 0.00 0.00 0.00 41 1010.5
20260503191105 28 278 3.2 11.3 0.00 0.00 0.00 39 1010.6
20260503190504 28 225 3.2 6.4 0.00 0.00 0.00 43 1010.7
20260503190004 27 304 3.2 4.8 0.00 0.00 0.00 39 1010.8
20260503185104 27 339 3.2 11.3 0.00 0.00 0.00 43 1010.7
20260503184504 27 360 9.7 11.3 0.00 0.00 0.00 44 1010.8
20260503184004 27 355 1.6 4.8 0.00 0.00 0.00 42 1011.0
20260503183504 27 217 1.6 4.8 0.00 0.00 0.00 50 1011.0
20260503183004 27 217 4.8 4.8 0.00 0.00 0.00 49 1011.0
20260503182505 26 221 3.2 4.8 0.00 0.00 0.00 54 1011.1
20260503182005 26 218 4.8 6.4 0.00 0.00 0.00 47 1011.1
20260503181505 26 215 4.8 6.4 0.00 0.00 0.00 51 1011.1
20260503181004 26 172 1.6 3.2 0.00 0.00 0.00 55 1011.2
20260503180504 26 170 0.0 6.4 0.00 0.00 0.00 53 1011.2
20260503180004 26 170 0.0 6.4 0.00 0.00 0.00 55 1011.2
20260503175504 26 158 0.0 3.2 0.00 0.00 0.00 54 1011.3
20260503175004 26 160 3.2 3.2 0.00 0.00 0.00 55 1011.3
20260503174304 25 153 0.0 3.2 0.00 0.00 0.00 64 1011.4
20260503173804 25 153 0.0 3.2 0.00 0.00 0.00 61 1011.4
20260503173304 24 153 3.2 3.2 0.00 0.00 0.00 62 1011.5
20260503172804 23 153 1.6 3.2 0.00 0.00 0.00 64 1011.6
20260503172305 23 154 0.0 1.6 0.00 0.00 0.00 62 1011.6
20260503171804 22 154 1.6 1.6 0.00 0.00 0.00 65 1011.7
20260503171304 22 155 0.0 1.6 0.00 0.00 0.00 69 1011.8
20260503170604 21 153 1.6 3.2 0.00 0.00 0.00 75 1011.8
20260503170104 21 153 1.6 3.2 0.00 0.00 0.00 75 1011.8
20260503151005 11 217 0.0 1.6 0.00 0.00 0.00 100 1012.7
20260503150504 11 217 0.0 1.6 0.00 0.00 0.00 100 1012.7
20260503140104 7 244 1.6 4.8 0.00 0.00 0.00 99 1012.6
20260503131104 7 360 0.0 0.0 0.00 0.00 0.00 99 1012.3
20260503130604 7 360 0.0 0.0 0.00 0.00 0.00 99 1012.5
20260503130104 7 360 0.0 0.0 0.00 0.00 0.00 99 1012.4
20260503120204 7 360 0.0 1.6 0.00 0.00 0.00 98 1012.3
20260503110604 7 360 0.0 0.0 0.00 0.00 0.00 98 1012.6
20260503110104 7 360 0.0 1.6 0.00 0.00 0.00 98 1012.6
20260503090504 8 310 1.6 1.6 0.00 0.00 0.00 97 1012.8
20260503081304 10 311 0.0 1.6 0.00 0.00 0.00 97 1013.0
20260503080804 10 311 0.0 3.2 0.00 0.00 0.00 98 1012.9
20260503080304 10 311 0.0 3.2 0.00 0.00 0.00 97 1012.9
20260503072804 10 310 1.6 3.2 0.00 0.00 0.00 96 1012.8
20260503072305 10 310 1.6 1.6 0.00 0.00 0.00 97 1012.9
20260503071604 10 310 0.0 1.6 0.00 0.00 0.00 96 1012.9
20260503070304 11 310 1.6 1.6 0.00 0.00 0.00 96 1013.1
20260503060104 12 5 1.6 4.8 0.00 0.00 0.00 95 1013.1
20260503054904 12 360 3.2 3.2 0.00 0.00 0.00 95 1012.9
20260503054404 12 264 3.2 4.8 0.00 0.00 0.00 95 1012.8
20260503053904 12 360 3.2 4.8 0.00 0.00 0.00 94 1012.8
20260503053404 12 360 3.2 3.2 0.00 0.00 0.00 93 1013.0
20260503052904 12 202 0.0 1.6 0.00 0.00 0.00 93 1012.8
20260503052404 12 202 0.0 3.2 0.00 0.00 0.00 92 1012.8
20260503051904 13 360 0.0 3.2 0.00 0.00 0.00 93 1012.7
20260503051404 13 360 3.2 3.2 0.00 0.00 0.00 94 1012.8
20260503050904 13 360 0.0 1.6 0.00 0.00 0.00 94 1012.8
20260503050404 13 360 1.6 3.2 0.00 0.00 0.00 94 1012.8
20260503045904 13 360 1.6 3.2 0.00 0.00 0.00 92 1012.9
20260503045404 13 360 3.2 3.2 0.00 0.00 0.00 90 1012.9
20260503044804 14 360 1.6 1.6 0.00 0.00 0.00 91 1013.0
20260503044304 14 360 0.0 3.2 0.00 0.00 0.00 91 1012.9
20260503043804 14 360 1.6 3.2 0.00 0.00 0.00 91 1012.8
20260503043304 14 203 0.0 0.0 0.00 0.00 0.00 89 1012.8
20260503042804 15 202 0.0 1.6 0.00 0.00 0.00 89 1012.7
20260503042305 15 360 0.0 3.2 0.00 0.00 0.00 89 1012.6
20260503041804 15 202 0.0 3.2 0.00 0.00 0.00 88 1012.6
20260503041004 15 202 3.2 3.2 0.00 0.00 0.00 87 1012.5
20260503040304 16 203 1.6 1.6 0.00 0.00 0.00 88 1012.4
20260503035804 16 203 0.0 1.6 0.00 0.00 0.00 87 1012.4
20260503035305 16 203 0.0 3.2 0.00 0.00 0.00 86 1012.2
20260503034804 16 203 0.0 3.2 0.00 0.00 0.00 86 1012.1
20260503034204 16 200 1.6 3.2 0.00 0.00 0.00 84 1011.9
20260503033704 17 360 1.6 3.2 0.00 0.00 0.00 82 1011.9
20260503033204 17 200 0.0 3.2 0.00 0.00 0.00 82 1011.6
20260503032704 18 201 1.6 3.2 0.00 0.00 0.00 80 1011.5
20260503032004 19 200 0.0 3.2 0.00 0.00 0.00 78 1011.5
20260503031504 20 360 0.0 3.2 0.00 0.00 0.00 77 1011.3
20260503031004 20 200 0.0 3.2 0.00 0.00 0.00 75 1011.2
20260503030504 21 200 0.0 3.2 0.00 0.00 0.00 73 1011.2
20260503030004 22 200 0.0 3.2 0.00 0.00 0.00 71 1011.1
20260503025504 22 200 1.6 3.2 0.00 0.00 0.00 70 1011.0
20260503025005 22 200 0.0 3.2 0.00 0.00 0.00 71 1011.0
20260503024505 22 200 3.2 3.2 0.00 0.00 0.00 70 1010.9
20260503023604 23 200 1.6 3.2 0.00 0.00 0.00 68 1011.0
20260503023104 24 200 1.6 3.2 0.00 0.00 0.00 67 1011.0
20260503022604 25 202 1.6 3.2 0.00 0.00 0.00 64 1011.0
20260503021804 24 202 0.0 3.2 0.00 0.00 0.00 66 1011.0
20260503021104 24 202 0.0 3.2 0.00 0.00 0.00 66 1011.0
20260503020404 24 202 1.6 3.2 0.00 0.00 0.00 59 1011.0
20260503015904 24 202 0.0 3.2 0.00 0.00 0.00 59 1011.1
20260503015405 24 201 3.2 3.2 0.00 0.00 0.00 60 1011.2
20260503014704 23 201 3.2 6.4 0.00 0.00 0.00 64 1011.1
20260503014204 24 200 6.4 6.4 0.00 0.00 0.00 62 1011.2
20260503013704 24 197 4.8 8.0 0.00 0.00 0.00 61 1011.2
20260503013204 24 196 4.8 8.0 0.00 0.00 0.00 63 1011.3
20260503012704 24 212 6.4 6.4 0.00 0.00 0.00 62 1011.3
20260503012204 24 193 3.2 6.4 0.00 0.00 0.00 60 1011.2
20260503011704 24 191 6.4 6.4 0.00 0.00 0.00 59 1011.3
20260503011204 25 195 3.2 6.4 0.00 0.00 0.00 59 1011.2
20260503010704 25 175 0.0 3.2 0.00 0.00 0.00 59 1011.1
20260503010204 25 258 0.0 1.6 0.00 0.00 0.00 58 1011.1
20260503005704 24 286 0.0 1.6 0.00 0.00 0.00 57 1011.1
20260503005204 24 286 0.0 1.6 0.00 0.00 0.00 57 1011.1
20260503004704 24 286 0.0 1.6 0.00 0.00 0.00 57 1011.2
20260503004204 24 286 0.0 4.8 0.00 0.00 0.00 59 1011.2
20260503003704 23 286 0.0 4.8 0.00 0.00 0.00 57 1011.2
20260503003204 23 285 4.8 6.4 0.00 0.00 0.00 57 1011.2
20260503002704 23 304 1.6 6.4 0.00 0.00 0.00 58 1011.2
20260503002204 23 239 3.2 6.4 0.00 0.00 0.00 57 1011.4
20260503001704 23 245 6.4 9.7 0.00 0.00 0.00 59 1011.5
20260503001109 23 309 1.6 9.7 0.00 0.00 0.00 59 1011.4
20260503000505 23 245 4.8 8.0 0.00 0.00 0.00 59 1011.4
20260503000004 23 244 1.6 11.3 0.00 0.00 0.00 59 1011.5
20260502235504 23 242 8.0 11.3 0.00 0.00 0.00 58 1011.5
20260502235004 23 204 9.7 9.7 0.00 0.00 0.00 59 1011.5
20260502234504 23 236 3.2 9.7 0.00 0.00 0.00 61 1011.5
20260502234004 23 225 6.4 8.0 0.00 0.00 0.00 61 1011.6
20260502233504 23 236 6.4 9.7 0.00 0.00 0.00 61 1011.6
20260502233004 23 232 6.4 9.7 0.00 0.00 0.00 59 1011.8
20260502232504 23 249 3.2 9.7 0.00 0.00 0.00 62 1011.8
20260502232004 23 292 3.2 11.3 0.00 0.00 0.00 62 1012.0
20260502231405 22 221 8.0 11.3 0.00 0.00 0.00 62 1012.1
20260502230904 22 273 9.7 9.7 0.00 0.00 0.00 65 1012.2
20260502230404 22 221 3.2 6.4 0.00 0.00 0.00 71 1012.3